Le Val d'Heure
Catégorie
ve3
Ham sur Heure, 26/04/2015, BEL
Delhalle - 14,15km - Classement
14.15km 
RangNrNomAgeIOCLigueEquipeRéelTempsTkmMoy.ScrPtsLocalité
1.697VAN DEN BROECK RAPHAEL62BELACA1:01:531:01:554:23 13.7149868HASSELT
2.3478MAGIS BERNARD65BELESM1:02:551:02:574:27 13.4957844
3.74BROUWIER PIERRE63BELHERVE1:02:591:03:054:28 13.4659842GRAND RECHAIN
4.146VAN NEVEL FRANS61BELBEHO1:03:311:03:334:30 13.3663829BRUGGE
5.3381NUTELET CARLOS61BELJCPMF1:03:031:03:374:30 13.3564837ECAUSSINNES
6.3428CIRELLI MARIO63BELCRAC CHARLEROI1:04:441:04:524:36 13.0975800JUMET
7.580HOMBROUX MARCEL62BELFCHAHANNUT JOG1:06:431:06:524:44 12.7097751MONTENAKEN
8.194AUBERT SERGE60BELDONDORGANES1:08:441:08:504:52 12.34125699GERPINNES
9.669BILON EUSEBE62BELESM1:09:491:10:094:58 12.11137674MARCHIENNE AU PONT
10.184LEFEBVRE DANIEL60BELETCHIEVR1:11:001:11:275:03 11.88154643CHIEVRES
11.886DEWOLF PHILIPPE64BELESM1:11:111:11:315:04 11.87157638MERBES SAINTE MARIE
12.45PLOYAERT ERIC60BELWAL'COURSE1:11:171:11:375:04 11.86159635LOBBES
13.464VIDICK JEAN-LUC62BELMYSTERE1:12:041:12:165:07 11.75165619BRUXELLES
14.426QUINET BERNARD63BELFLEU1:12:171:12:315:08 11.71171611GILLY
15.3480FRESCA LUIGI62BELUAC1:12:521:12:545:10 11.65181596
16.161ANGELY GAETAN68BELWATERLOO RUNNERS1:13:201:13:335:12 11.54187584WATERLOO
17.517KOLP CHRISTIAN61BEL1:13:491:13:535:14 11.49193573BRUXELLES
18.124LE CHARLIER BAUDOUIN65BEL1:13:471:14:045:15 11.46198570NAMUR
19.246VANTSIOTIS ANASTHASE62FRA1:14:571:15:035:19 11.31214541BAAR
20.3401TERZINI SERAFINO60BELJCMJC MONTAGNARD1:16:101:16:295:25 11.10232511GOUTROUX
21.189MARIÊN RIK66BELC.H.G.B1:16:261:16:325:25 11.10233506HASSELT
22.55ROBERTI DE WINGHE MAX60BELLACRONVAU1:16:061:16:425:26 11.07237508ARCHENNES
23.548JANSSENS PHILIPPE61BELWALCOURSE1:16:321:16:525:26 11.05241499WALCOURT
24.166HOUNJE FREDDY61BEL1:17:091:17:185:28 10.98245488AUBEL
25.461DE SOBRIE HERMAN63BELACHLKASTEELLOPERS1:17:121:17:255:29 10.97247486VORSELAAR
26.3458VANDENBOSSCHE CLAUDE60BELESM1:18:011:18:155:32 10.85256468GOZÉE
27.49DEGROOT JEAN67BELFCHAHANNUT JOG1:19:041:19:135:36 10.72269444HANNUT
28.301QUINET JEAN PAUL65BELFLEU1:19:481:20:035:40 10.61281425GILLY
29.692ROBERT MICHEL65BELBOUFFIOL G&1:19:531:20:125:41 10.59282423GERPINNES
30.3470SICILIANO MICHEL61BELACLOACLO1:20:521:21:045:44 10.47288406
31.3386POTY LUC67BELESM1:21:071:21:195:45 10.44291400MONT SUR MARCHIENNE
32.3344GAMBINO PIETRO62ITAGAMBINOTEAM1:20:451:21:225:46 10.43293404CHARLEROI
33.3417PESTIAUX YVES63BELLA THURE1:21:011:21:295:46 10.42296398RANCE
34.59LIEGEOIS J.LOUIS63BELLAC1:23:001:23:315:55 10.17327349HEVERLEE
35.459LEJEUNE CHRISTIAN66BEL16501:23:141:23:365:55 10.16329345VERVIERS
36.3347GILLES JEAN-PIERRE64BELJ.C. MONTAGNARD1:24:161:24:375:59 10.03349317MONTIGNY LE TILLEUL
37.546BEAU CHRISTIAN63BELSPIBO1:24:071:24:436:00 10.02352317JURBISE
38.510GEORGE JEAN POL64BEL1:24:141:24:526:00 10.00358312BEAUVECHAIN
39.993LELOUP STEPHAN61BEL1:25:431:26:126:06 9.85370284ROSIERES
40.232MANFROID POL68BELJOGGANS1:26:151:26:416:08 9.79376273BRUXELLES
41.317GUIRCHE ALBERT63BELSPIBOR1:26:301:26:466:08 9.79377269FEIGNIES
42.3388ROUSSEAUX PIERRE62BEL1:35:341:36:026:48 8.84452106MONT SUR MARCHIENNE
43.170MALVOZ J.REMY69BELESM1:35:241:36:036:48 8.84453108SENEFFE
44.632MAINIL MICHEL66BELMSF1:35:511:36:236:49 8.81454102HAINE-ST-PIERRE
45.3426PAINBLANC DIDIER60BELJC THIMEON1:36:091:36:556:51 8.7645598THIMEON
46.718MAKINTOSH EDOUARD67BEL1:40:201:40:437:08 8.4346246OVERIJSE
47.3445BUYENS JOHAN65BELBAV1:40:371:41:217:10 8.3846441RIXENSART
DNF: abandon; DSQ: disqualifié; Vitesse en km/h
30/11/2020 - 08:25 - 48 Entrées
ChronoRace - Electronic Timing SPRL
http://www.chronorace.be

Page 1 / 1  
Le Val d'Heure
Catégorie
ve3
Ham sur Heure, 26/04/2015, BEL
Delhalle - 14,15km - Classement
14.15km 
RangNrNomAgeIOCLigueEquipeRéelTempsTkmMoy.ScrPtsLocalité
48.582ENCKELS MARC65BEL1:44:591:45:357:28 8.044696HEVERLEE
DNF: abandon; DSQ: disqualifié; Vitesse en km/h
30/11/2020 - 08:25 - 48 Entrées
ChronoRace - Electronic Timing SPRL
http://www.chronorace.be

Page 2 / 1